{"data":{"norad_id":62037,"epoch":"2026-09-21T04:51:56.778336Z","epoch_age_seconds":124812,"freshness":"FRESH","line1":"1 62037U 24216F   26264.20274049  .00013592  00000+0  50241-3 0  9995","line2":"2 62037  43.0010 239.3670 0001425 271.0149  89.0540 15.27588090103706","mean_motion":15.2758809,"eccentricity":0.0001425,"inclination_deg":43.001,"raan_deg":239.367,"arg_perigee_deg":271.0149,"mean_anomaly_deg":89.054,"bstar":0.00050241,"rev_number":10370,"period_min":94.266249483524,"perigee_km":482.04715620947,"apogee_km":484.00258734293,"semimajor_km":6861.1618717762,"source":"CELESTRAK","updated_at":"2026-09-22T09:00:49.487433Z"}}